Location: Hurstbourne Priors
(51.2000°N, 1.3667°W)
Time: 02:55:29
(UTC+00:00)

H-2A R/B - Pass Details

Date: 09 April 2020
Orbit: 734 x 836 km, 98.2° (Epoch: 26 May)

Event Time Altitude Azimuth Distance (km) Brightness Sun altitude
Rises 19:57:44 0° 180° (S) 3,280 5.0 -10.4°
Reaches altitude 10° 20:00:09 10° 186° (S) 2,340 4.3 -10.7°
Maximum altitude 20:05:08 48° 261° (W) 999 3.0 -11.4°
Drops below altitude 10° 20:10:01 10° 336° (NNW) 2,295 5.3 -12.1°
Sets 20:12:23 0° 342° (NNW) 3,211 6.0 -12.4°
